Location: Caltech
(34.1382°N, 118.1253°W)
Time: 23:09:55
(UTC-07:00)

OAO 2 Rocket - Visible Passes

Search period start: 22 March 2017 00:00
Search period end: 01 April 2017 00:00
Orbit: 676 x 747 km, 35.0° (Epoch: 21 March)

Date Brightness Start Highest point End Pass type
(mag) Time Alt. Az. Time Alt. Az. Time Alt. Az.
22 Mar 5.9 03:57:58 14° ESE 03:57:58 14° ESE 03:58:39 10° ESE visible
22 Mar 4.5 05:36:57 23° SW 05:37:54 25° SSW 05:42:01 10° SSE visible
23 Mar 5.1 04:42:58 22° SSE 04:42:58 22° SSE 04:45:04 10° SE visible
24 Mar 5.3 05:28:07 14° SSW 05:28:07 14° SSW 05:29:45 10° S visible
24 Mar 5.7 21:26:06 10° SW 21:26:53 14° SSW 21:26:53 14° SSW visible
25 Mar 4.7 20:29:13 10° SSW 20:33:08 22° SSE 20:33:08 22° SSE visible
26 Mar 5.2 19:32:55 10° S 19:35:45 15° SE 19:38:37 10° ESE visible
26 Mar 4.4 21:14:56 10° SW 21:18:17 36° SSW 21:18:17 36° SSW visible
27 Mar 4.1 20:17:40 10° SW 20:22:22 36° SSE 20:24:20 26° ESE visible
27 Mar 5.5 22:01:42 10° WSW 22:03:21 21° WSW 22:03:21 21° WSW visible
28 Mar 3.3 21:04:05 10° WSW 21:09:15 69° SSE 21:09:17 69° SSE visible
29 Mar 3.6 20:06:35 10° SW 20:11:35 53° SSE 20:15:07 19° E visible
29 Mar 4.7 21:51:08 10° W 21:54:06 35° W 21:54:06 35° W visible
30 Mar 3.3 20:53:26 10° WSW 20:58:37 87° SSE 20:59:50 54° E visible
30 Mar 6.1 22:38:19 10° W 22:38:49 13° W 22:38:49 13° W visible
31 Mar 3.4 19:55:49 10° WSW 20:00:55 74° SSE 20:05:30 13° E visible
31 Mar 4.1 21:40:36 10° W 21:44:28 51° WNW 21:44:28 51° WNW visible
